Location: Bats
(43.6587°N, 0.4584°W)
Time: 14:57:18
(UTC+00:00)

SL-16 R/B - Visible Passes

Search period start: 19 April 2026 00:00
Search period end: 29 April 2026 00:00
Orbit: 985 x 1006 km, 99.8° (Epoch: 19 April)

Date Brightness Start Highest point End Pass type
(mag) Time Alt. Az. Time Alt. Az. Time Alt. Az.
19 Apr 4.8 02:27:28 10° ESE 02:32:09 23° ENE 02:36:51 10° N visible
19 Apr 2.5 04:08:55 10° S 04:15:08 69° WSW 04:21:25 10° NNW visible
20 Apr 4.1 02:56:52 10° SE 03:02:29 37° ENE 03:08:08 10° N visible
20 Apr 3.0 04:40:08 10° SSW 04:45:57 40° W 04:51:49 10° NNW visible
21 Apr 5.5 01:48:44 10° ENE 01:50:40 12° NE 01:52:36 10° NNE visible
21 Apr 3.2 03:26:51 10° SSE 03:32:59 60° ENE 03:39:08 10° N visible
22 Apr 5.1 02:16:37 10° E 02:20:48 19° NE 02:24:59 10° NNE visible
22 Apr 2.5 03:57:19 10° SSE 04:03:35 83° WSW 04:09:54 10° NNW visible
23 Apr 4.4 02:45:46 10° ESE 02:51:04 30° ENE 02:56:25 10° N visible
23 Apr 2.8 04:28:19 10° S 04:34:22 50° W 04:40:26 10° NNW visible
24 Apr 3.5 03:15:32 10° SE 03:21:30 49° ENE 03:27:30 10° N visible
25 Apr 5.3 02:05:57 10° E 02:09:28 16° NE 02:12:59 10° NNE visible
25 Apr 2.7 03:45:49 10° SSE 03:52:04 82° ENE 03:58:22 10° NNW visible
26 Apr 4.7 02:34:44 10° ESE 02:39:41 25° ENE 02:44:38 10° N visible
26 Apr 2.6 04:16:37 10° S 04:22:47 61° WSW 04:28:59 10° NNW visible
27 Apr 3.9 03:04:17 10° SE 03:10:04 41° ENE 03:15:51 10° N visible
28 Apr 5.4 01:55:31 10° ENE 01:58:09 13° NE 02:00:48 10° NNE visible
28 Apr 3.0 03:34:22 10° SSE 03:40:34 67° ENE 03:46:48 10° N visible
